When you browse on this site, cookies collect data to enhance your experience and personalize the content and advertising you see.
Visit our Privacy Policy to learn more. By continuing to use the site, you agree to this use of cookies and data.
  • In Deutschland
  • Länderverzeichnis
  • Für 7 Tage
  • Wassertemperatur
  • Wetterkarte
  • Widgets
  • user-avatar
    Anmelden

    Stündliche Wetter Baklushina

    Heute, 22 Februar, Samstag

    Zeit Temperatur Niederschläge Wind Luftdruck Luftfeuchtigkeit
    00:00 -6°C° 0 mm 1 m/S 746 mmHg 94%
    01:00 -7°C° 0 mm 1 m/S 746 mmHg 94%
    02:00 -7°C° 0 mm 1 m/S 746 mmHg 94%
    03:00 -7°C° 0 mm 1 m/S 747 mmHg 93%
    04:00 -7°C° 0 mm 1 m/S 747 mmHg 96%
    05:00 -7°C° 0 mm 1 m/S 747 mmHg 96%
    06:00 -7°C° 0 mm 1 m/S 747 mmHg 96%
    07:00 -7°C° 0 mm 1 m/S 747 mmHg 95%
    08:00 -6°C° 0 mm 1 m/S 748 mmHg 95%
    09:00 -3°C° 0 mm 1 m/S 748 mmHg 94%
    10:00 -4°C° 0 mm 2 m/S 749 mmHg 94%
    11:00 -3°C° 0 mm 2 m/S 749 mmHg 92%
    12:00 -3°C° 0 mm 2 m/S 749 mmHg 90%
    13:00 -2°C° 0 mm 3 m/S 749 mmHg 88%
    14:00 -2°C° 0 mm 2 m/S 749 mmHg 87%
    15:00 -2°C° 0 mm 2 m/S 749 mmHg 87%
    16:00 -2°C° 0 mm 2 m/S 749 mmHg 86%
    17:00 -3°C° 0 mm 2 m/S 749 mmHg 88%
    18:00 -4°C° 0 mm 2 m/S 749 mmHg 90%
    19:00 -4°C° 0 mm 2 m/S 749 mmHg 92%
    20:00 -5°C° 0 mm 2 m/S 749 mmHg 93%
    21:00 -5°C° 0 mm 2 m/S 749 mmHg 94%
    22:00 -6°C° 0 mm 2 m/S 749 mmHg 94%
    23:00 -6°C° 0 mm 2 m/S 749 mmHg 95%

    Morgen, 23 Februar, Sonntag

    Zeit Temperatur Niederschläge Wind Luftdruck Luftfeuchtigkeit
    00:00 -6°C° 0 mm 2 m/S 748 mmHg 95%
    01:00 -6°C° 0 mm 2 m/S 748 mmHg 95%
    02:00 -6°C° 0 mm 2 m/S 748 mmHg 95%
    03:00 -7°C° 0 mm 2 m/S 748 mmHg 95%
    04:00 -8°C° 0 mm 3 m/S 748 mmHg 95%
    05:00 -8°C° 0 mm 3 m/S 747 mmHg 95%
    06:00 -7°C° 0 mm 3 m/S 747 mmHg 94%
    07:00 -7°C° 0 mm 3 m/S 747 mmHg 94%
    08:00 -5°C° 0 mm 3 m/S 747 mmHg 91%
    09:00 -4°C° 0 mm 4 m/S 747 mmHg 88%
    10:00 -3°C° 0 mm 4 m/S 747 mmHg 85%
    11:00 -4°C° 0 mm 5 m/S 746 mmHg 85%
    12:00 -4°C° 0 mm 5 m/S 746 mmHg 84%
    13:00 -4°C° 0 mm 5 m/S 745 mmHg 83%
    14:00 -4°C° 0 mm 5 m/S 745 mmHg 83%
    15:00 -3°C° 0 mm 4 m/S 745 mmHg 82%
    16:00 -3°C° 0 mm 4 m/S 744 mmHg 82%
    17:00 -4°C° 0 mm 4 m/S 744 mmHg 84%
    18:00 -5°C° 0 mm 4 m/S 743 mmHg 86%
    19:00 -5°C° 0 mm 4 m/S 743 mmHg 89%
    20:00 -7°C° 0 mm 4 m/S 742 mmHg 89%
    21:00 -7°C° 0 mm 4 m/S 742 mmHg 89%
    22:00 -7°C° 0 mm 3 m/S 741 mmHg 89%
    23:00 -8°C° 0 mm 4 m/S 741 mmHg 89%

    übermorgen, 24 Februar, Montag

    Zeit Temperatur Niederschläge Wind Luftdruck Luftfeuchtigkeit
    00:00 -8°C° 0 mm 4 m/S 740 mmHg 89%
    01:00 -8°C° 0 mm 4 m/S 739 mmHg 89%
    02:00 -8°C° 0 mm 4 m/S 739 mmHg 89%
    03:00 -8°C° 0 mm 4 m/S 738 mmHg 88%
    04:00 -8°C° 0 mm 4 m/S 738 mmHg 88%
    05:00 -7°C° 0 mm 4 m/S 737 mmHg 89%
    06:00 -7°C° 0 mm 4 m/S 737 mmHg 89%
    07:00 -7°C° 0 mm 4 m/S 736 mmHg 90%
    08:00 -5°C° 0 mm 4 m/S 736 mmHg 88%
    09:00 -6°C° 0 mm 5 m/S 735 mmHg 86%
    10:00 -5°C° 0 mm 5 m/S 735 mmHg 84%
    11:00 -5°C° 0.1 mm 5 m/S 734 mmHg 86%
    12:00 -4°C° 0.1 mm 5 m/S 734 mmHg 88%
    13:00 -4°C° 0.1 mm 5 m/S 733 mmHg 90%
    14:00 -4°C° 0.3 mm 5 m/S 733 mmHg 92%
    15:00 -4°C° 0.3 mm 5 m/S 733 mmHg 93%
    16:00 -4°C° 0.3 mm 5 m/S 732 mmHg 94%
    17:00 -4°C° 0.1 mm 5 m/S 732 mmHg 93%
    18:00 -4°C° 0.1 mm 5 m/S 731 mmHg 92%
    19:00 -5°C° 0.1 mm 5 m/S 731 mmHg 92%
    20:00 -4°C° 0.1 mm 4 m/S 731 mmHg 92%
    21:00 -4°C° 0.1 mm 4 m/S 731 mmHg 92%
    22:00 -4°C° 0.1 mm 4 m/S 731 mmHg 92%
    23:00 -5°C° 0.1 mm 5 m/S 731 mmHg 92%

    25 Februar, Dienstag

    Zeit Temperatur Niederschläge Wind Luftdruck Luftfeuchtigkeit
    00:00 -5°C° 0.1 mm 5 m/S 731 mmHg 91%
    01:00 -5°C° 0.1 mm 5 m/S 731 mmHg 91%
    02:00 -5°C° 0.1 mm 5 m/S 732 mmHg 90%
    03:00 -5°C° 0.1 mm 5 m/S 733 mmHg 89%
    04:00 -5°C° 0.1 mm 5 m/S 733 mmHg 89%
    05:00 -4°C° 0 mm 4 m/S 734 mmHg 89%
    06:00 -5°C° 0 mm 4 m/S 734 mmHg 90%
    07:00 -5°C° 0 mm 4 m/S 734 mmHg 91%
    08:00 -4°C° 0 mm 4 m/S 734 mmHg 89%
    09:00 -4°C° 0 mm 4 m/S 735 mmHg 87%
    10:00 -3°C° 0 mm 4 m/S 735 mmHg 85%
    11:00 -1°C° 0 mm 3 m/S 735 mmHg 85%
    12:00 -1°C° 0 mm 3 m/S 735 mmHg 85%
    13:00 -1°C° 0 mm 3 m/S 735 mmHg 84%
    14:00 -1°C° 0 mm 3 m/S 735 mmHg 86%
    15:00 -1°C° 0 mm 3 m/S 735 mmHg 87%
    16:00 -1°C° 0 mm 2 m/S 735 mmHg 88%
    17:00 -1°C° 0 mm 2 m/S 735 mmHg 90%
    18:00 -2°C° 0 mm 2 m/S 734 mmHg 93%
    19:00 -2°C° 0 mm 2 m/S 734 mmHg 95%
    20:00 -3°C° 0 mm 2 m/S 734 mmHg 96%
    21:00 -4°C° 0 mm 2 m/S 734 mmHg 96%
    22:00 -5°C° 0 mm 2 m/S 734 mmHg 96%
    23:00 -5°C° 0 mm 2 m/S 733 mmHg 96%

    26 Februar, Mittwoch

    Zeit Temperatur Niederschläge Wind Luftdruck Luftfeuchtigkeit
    00:00 -4°C° 0 mm 1 m/S 733 mmHg 96%
    01:00 -4°C° 0 mm 1 m/S 733 mmHg 96%
    02:00 -5°C° 0 mm 2 m/S 732 mmHg 96%
    03:00 -5°C° 0 mm 2 m/S 732 mmHg 96%
    04:00 -5°C° 0 mm 2 m/S 732 mmHg 96%
    05:00 -4°C° 0 mm 2 m/S 731 mmHg 96%
    06:00 -3°C° 0 mm 2 m/S 731 mmHg 96%
    07:00 -2°C° 0 mm 2 m/S 730 mmHg 95%
    08:00 -2°C° 0.1 mm 2 m/S 730 mmHg 96%
    09:00 -1°C° 0.1 mm 3 m/S 730 mmHg 97%
    10:00 -1°C° 0.1 mm 3 m/S 729 mmHg 98%
    11:00 +1°C° 0.5 mm 2 m/S 729 mmHg 98%
    12:00 +1°C° 0.5 mm 2 m/S 729 mmHg 99%
    13:00 +1°C° 0.5 mm 2 m/S 728 mmHg 99%
    14:00 +2°C° 0.5 mm 1 m/S 728 mmHg 99%
    15:00 +2°C° 0.5 mm 1 m/S 728 mmHg 99%
    16:00 +1°C° 0.5 mm 0 m/S 728 mmHg 99%
    17:00 +1°C° 0.4 mm 1 m/S 728 mmHg 98%
    18:00 -1°C° 0.4 mm 2 m/S 729 mmHg 97%
    19:00 -1°C° 0.4 mm 3 m/S 729 mmHg 96%
    20:00 -2°C° 0 mm 3 m/S 729 mmHg 93%
    21:00 -4°C° 0 mm 4 m/S 730 mmHg 91%
    22:00 -5°C° 0 mm 5 m/S 730 mmHg 89%
    23:00 -5°C° 0 mm 4 m/S 730 mmHg 89%

    27 Februar, Donnerstag

    Zeit Temperatur Niederschläge Wind Luftdruck Luftfeuchtigkeit
    00:00 -7°C° 0 mm 4 m/S 731 mmHg 90%
    01:00 -8°C° 0 mm 4 m/S 731 mmHg 90%
    02:00 -9°C° 0 mm 4 m/S 732 mmHg 90%
    03:00 -10°C° 0 mm 4 m/S 732 mmHg 91%
    04:00 -11°C° 0 mm 4 m/S 733 mmHg 91%
    05:00 -10°C° 0 mm 3 m/S 733 mmHg 91%
    06:00 -12°C° 0 mm 3 m/S 733 mmHg 90%
    07:00 -13°C° 0 mm 3 m/S 733 mmHg 90%
    08:00 -10°C° 0 mm 3 m/S 733 mmHg 86%
    09:00 -9°C° 0 mm 4 m/S 733 mmHg 83%
    10:00 -7°C° 0 mm 4 m/S 733 mmHg 80%
    11:00 -5°C° 0 mm 4 m/S 733 mmHg 82%
    12:00 -5°C° 0 mm 5 m/S 733 mmHg 85%
    13:00 -4°C° 0 mm 5 m/S 734 mmHg 87%
    14:00 -4°C° 0 mm 5 m/S 734 mmHg 88%
    15:00 -4°C° 0 mm 5 m/S 734 mmHg 88%
    16:00 -2°C° 0 mm 5 m/S 735 mmHg 88%
    17:00 -2°C° 0 mm 5 m/S 735 mmHg 88%
    18:00 -2°C° 0 mm 4 m/S 736 mmHg 87%
    19:00 -1°C° 0 mm 4 m/S 736 mmHg 87%
    20:00 -2°C° 0 mm 4 m/S 737 mmHg 88%
    21:00 -2°C° 0 mm 4 m/S 737 mmHg 88%
    22:00 -2°C° 0 mm 4 m/S 738 mmHg 88%
    23:00 -2°C° 0 mm 4 m/S 738 mmHg 89%
    Mehr zeigen